Disclaimer

Please do not use the information listed here in-flight or in-navigation, as they are not provided to us by the airports but are provided by volunteers, so they might be outdated.

Search


Regions


Airport information page

Radio informations:
Tower (TWR) - 122.2 MHz

Airport informations:
Latitude: 00° 27' 13.53" S
Longitude: 090° 15' 57.29" W
Elevation: 207 feet - 63 meters
Operating hours: From sunrise to sunset (SR-SS)
Operating agency: Military-civil joint use airport
Timezone: UTC-6
Fuel: N/A

Runway information:
14/32 - 7876 x 115 feet< - >2401 x 35 meters

Recent METARs:
SEGS 192300Z 13011KT 9999 VCSH FEW020 BKN070 27/23 Q1008 A2979
SEGS 200000Z 15007KT 9999 VCSH FEW020 BKN070 26/23 Q1009 A2981
SEGS 200000Z 15007KT 9999 VCSH FEW020 BKN070 26/23 Q1009 A2981

Airport on the map: